| time (UTC) | temp F | wind direction | speed MPH | gust MPH | rain 1hr in | rain 24hr in | rain mn in | humidity % | barometer mb |
| 20260505223037 | 76 | 0.0 | 0.0 | 0.00 | 0.41 | 0.18 | 31 | 1007.4 | |
| 20260505221529 | 75 | 0.0 | 0.0 | 0.00 | 0.41 | 0.18 | 28 | 1007.6 | |
| 20260505220026 | 76 | 0.0 | 0.0 | 0.00 | 0.41 | 0.18 | 31 | 1007.8 | |
| 20260505214525 | 76 | 0.0 | 0.0 | 0.00 | 0.41 | 0.18 | 33 | 1007.8 | |
| 20260505213027 | 76 | 0.0 | 0.0 | 0.00 | 0.41 | 0.18 | 35 | 1007.9 | |
| 20260505211529 | 74 | 0.0 | 0.0 | 0.00 | 0.41 | 0.18 | 39 | 1007.9 | |
| 20260505210018 | 75 | 0.0 | 0.0 | 0.00 | 0.41 | 0.18 | 39 | 1008.0 | |
| 20260505204514 | 71 | 0.0 | 0.0 | 0.00 | 0.41 | 0.18 | 42 | 1008.1 | |
| 20260505203016 | 71 | 0.0 | 0.0 | 0.00 | 0.41 | 0.18 | 50 | 1008.2 | |
| 20260505201512 | 70 | 0.0 | 0.0 | 0.00 | 0.41 | 0.18 | 53 | 1008.4 | |
| 20260505200011 | 71 | 0.0 | 0.0 | 0.00 | 0.41 | 0.18 | 52 | 1008.6 | |
| 20260505194509 | 70 | 0.0 | 0.0 | 0.00 | 0.41 | 0.18 | 54 | 1008.6 | |
| 20260505193010 | 71 | 0.0 | 0.0 | 0.00 | 0.41 | 0.18 | 54 | 1008.7 | |
| 20260505191512 | 72 | 0.0 | 0.0 | 0.00 | 0.41 | 0.18 | 54 | 1008.9 | |
| 20260505190005 | 70 | 0.0 | 0.0 | 0.00 | 0.41 | 0.18 | 56 | 1009.1 | |
| 20260505184504 | 69 | 0.0 | 0.0 | 0.00 | 0.41 | 0.18 | 61 | 1009.4 | |
| 20260505183003 | 70 | 0.0 | 0.0 | 0.00 | 0.41 | 0.18 | 59 | 1009.4 | |
| 20260505181641 | 67 | 0.0 | 0.0 | 0.00 | 0.41 | 0.18 | 63 | 1009.7 | |
| 20260505180106 | 67 | 0.0 | 0.0 | 0.00 | 0.41 | 0.18 | 64 | 1009.8 | |
| 20260505174557 | 67 | 0.0 | 0.0 | 0.00 | 0.41 | 0.18 | 65 | 1009.9 | |
| 20260505173054 | 66 | 0.0 | 0.0 | 0.00 | 0.41 | 0.18 | 71 | 1009.9 | |
| 20260505171600 | 65 | 0.0 | 0.0 | 0.00 | 0.41 | 0.18 | 71 | 1009.9 | |
| 20260505170050 | 64 | 0.0 | 0.0 | 0.00 | 0.41 | 0.18 | 72 | 1009.8 | |
| 20260505164548 | 64 | 0.0 | 0.0 | 0.00 | 0.41 | 0.18 | 74 | 1009.7 | |
| 20260505163047 | 63 | 0.0 | 0.0 | 0.00 | 0.41 | 0.18 | 77 | 1009.9 | |
| 20260505161546 | 63 | 0.0 | 0.0 | 0.00 | 0.41 | 0.18 | 82 | 1009.9 | |
| 20260505153129 | 61 | 0.0 | 0.0 | 0.00 | 0.41 | 0.18 | 88 | 1009.7 | |
| 20260505151526 | 60 | 0.0 | 0.0 | 0.00 | 0.41 | 0.18 | 89 | 1009.6 | |
| 20260505124510 | 58 | 0.0 | 0.0 | 0.01 | 0.41 | 0.18 | 92 | 1008.6 | |
| 20260505123010 | 58 | 0.0 | 0.0 | 0.00 | 0.40 | 0.17 | 92 | 1008.2 | |
| 20260505121510 | 58 | 0.0 | 0.0 | 0.00 | 0.40 | 0.17 | 91 | 1008.2 | |
| 20260505120008 | 58 | 0.0 | 0.0 | 0.01 | 0.40 | 0.17 | 91 | 1008.0 | |
| 20260505114508 | 58 | 0.0 | 0.0 | 0.01 | 0.40 | 0.17 | 91 | 1008.0 | |
| 20260505113005 | 58 | 0.0 | 0.0 | 0.02 | 0.40 | 0.17 | 91 | 1008.3 | |
| 20260505111505 | 58 | 0.0 | 0.0 | 0.03 | 0.40 | 0.17 | 91 | 1008.0 | |
| 20260505101603 | 58 | 0.0 | 0.0 | 0.03 | 0.37 | 0.14 | 91 | 1009.2 | |
| 20260505100056 | 58 | 0.0 | 0.0 | 0.04 | 0.36 | 0.13 | 91 | 1009.6 | |
| 20260505094555 | 58 | 0.0 | 0.0 | 0.04 | 0.36 | 0.13 | 91 | 1009.3 | |
| 20260505093051 | 58 | 0.0 | 0.0 | 0.05 | 0.35 | 0.12 | 91 | 1010.1 | |
| 20260505091555 | 58 | 0.0 | 0.0 | 0.05 | 0.34 | 0.11 | 91 | 1010.0 | |
| 20260505090047 | 58 | 0.0 | 0.0 | 0.04 | 0.32 | 0.09 | 91 | 1010.6 | |
| 20260505084553 | 58 | 0.0 | 0.0 | 0.06 | 0.32 | 0.09 | 91 | 1010.8 | |
| 20260505083055 | 58 | 0.0 | 0.0 | 0.06 | 0.30 | 0.07 | 91 | 1011.4 | |
| 20260505081541 | 58 | 0.0 | 0.0 | 0.05 | 0.28 | 0.06 | 91 | 1011.5 | |
| 20260505080038 | 59 | 0.0 | 0.0 | 0.05 | 0.28 | 0.05 | 91 | 1011.9 | |
| 20260505074537 | 59 | 0.0 | 0.0 | 0.03 | 0.26 | 0.03 | 91 | 1012.1 | |
| 20260505073035 | 59 | 0.0 | 0.0 | 0.03 | 0.24 | 0.01 | 91 | 1012.0 | |
| 20260505071533 | 59 | 0.0 | 0.0 | 0.05 | 0.24 | 0.01 | 91 | 1011.8 | |
| 20260505070031 | 59 | 0.0 | 0.0 | 0.06 | 0.23 | 0.23 | 90 | 1011.5 | |
| 20260505064533 | 59 | 0.0 | 0.0 | 0.06 | 0.23 | 0.23 | 90 | 1011.5 | |
| 20260505063029 | 59 | 0.0 | 0.0 | 0.05 | 0.21 | 0.21 | 90 | 1011.4 | |
| 20260505061528 | 59 | 0.0 | 0.0 | 0.03 | 0.19 | 0.19 | 90 | 1011.6 | |
| 20260505060026 | 58 | 0.0 | 0.0 | 0.01 | 0.17 | 0.17 | 90 | 1011.5 | |
| 20260505054542 | 58 | 0.0 | 0.0 | 0.01 | 0.17 | 0.17 | 89 | 1011.1 | |
| 20260505053025 | 58 | 0.0 | 0.0 | 0.01 | 0.16 | 0.16 | 88 | 1011.4 | |
| 20260505051523 | 58 | 0.0 | 0.0 | 0.01 | 0.16 | 0.16 | 88 | 1011.4 | |
| 20260505041520 | 58 | 0.0 | 0.0 | 0.00 | 0.15 | 0.15 | 86 | 1011.0 | |
| 20260505040020 | 58 | 0.0 | 0.0 | 0.02 | 0.15 | 0.15 | 87 | 1010.8 | |
| 20260505034525 | 57 | 0.0 | 0.0 | 0.05 | 0.15 | 0.15 | 86 | 1010.4 | |
| 20260505033018 | 57 | 0.0 | 0.0 | 0.07 | 0.15 | 0.15 | 86 | 1010.2 | |
| 20260505031517 | 57 | 0.0 | 0.0 | 0.07 | 0.15 | 0.15 | 86 | 1010.3 | |
| 20260505030033 | 58 | 0.0 | 0.0 | 0.07 | 0.13 | 0.13 | 86 | 1011.1 | |
| 20260505024516 | 58 | 0.0 | 0.0 | 0.06 | 0.10 | 0.10 | 85 | 1011.2 | |
| 20260505023009 | 59 | 0.0 | 0.0 | 0.05 | 0.08 | 0.08 | 85 | 1011.2 | |
| 20260505021507 | 60 | 0.0 | 0.0 | 0.06 | 0.08 | 0.08 | 84 | 1011.2 | |
| 20260505020003 | 60 | 0.0 | 0.0 | 0.05 | 0.06 | 0.06 | 80 | 1010.9 | |
| 20260505014603 | 61 | 0.0 | 0.0 | 0.04 | 0.04 | 0.04 | 80 | 1010.5 | |
| 20260505013057 | 62 | 0.0 | 0.0 | 0.03 | 0.03 | 0.03 | 80 | 1010.2 | |
| 20260505011600 | 62 | 0.0 | 0.0 | 0.02 | 0.02 | 0.02 | 76 | 1009.6 | |
| 20260505010109 | 64 | 0.0 | 0.0 | 0.01 | 0.01 | 0.01 | 72 | 1009.4 | |
| 20260505004601 | 65 | 0.0 | 0.0 | 0.00 | 0.00 | 0.00 | 65 | 1009.6 | |
| 20260505003051 | 67 | 0.0 | 0.0 | 0.00 | 0.00 | 0.00 | 61 | 1009.7 | |
| 20260505001546 | 68 | 0.0 | 0.0 | 0.00 | 0.00 | 0.00 | 50 | 1009.3 | |
| 20260505000045 | 69 | 0.0 | 0.0 | 0.00 | 0.00 | 0.00 | 44 | 1008.9 | |
| 20260504234542 | 71 | 0.0 | 0.0 | 0.00 | 0.00 | 0.00 | 41 | 1008.8 | |
| 20260504233040 | 74 | 0.0 | 0.0 | 0.00 | 0.00 | 0.00 | 31 | 1008.8 | |
| 20260504231549 | 77 | 0.0 | 0.0 | 0.00 | 0.00 | 0.00 | 25 | 1008.8 | |
| 20260504230039 | 78 | 0.0 | 0.0 | 0.00 | 0.00 | 0.00 | 22 | 1008.2 | |
| 20260504224541 | 79 | 0.0 | 0.0 | 0.00 | 0.00 | 0.00 | 21 | 1008.0 |